Change the Weather History Date:

Wednesday, May 8, 2013

  Actual Average Record
Temperature  
Mean Temperature 40 °F -  
Max Temperature 53 °F 53 °F 75 °F (1981)
Min Temperature 27 °F 32 °F 15 °F (1964)
Degree Days  
Heating Degree Days 25    
Moisture  
Dew Point 21 °F    
Average Humidity 45    
Maximum Humidity 78    
Minimum Humidity 20    
Precipitation  
Precipitation 0.00 in - - ()
Sea Level Pressure  
Sea Level Pressure 30.27 in    
Wind  
Wind Speed 3 mph (NNW)    
Max Wind Speed 12 mph    
Max Gust Speed -    
Visibility 10 miles    
Events      
Averages and records for this station are not official NWS values.
T = Trace of Precipitation, MM = Missing Value Source: NWS Daily Summary

Daily Weather History Graph

Daily Weather History Graph

Search for Another Location

Airport or City:

Trip Planner

Search our weather history database for the weather conditions in past years. The results will help you decide how hot, cold, wet, or windy it might be!

Date:

Astronomy

May. 08, 2013 Rise Set
Actual Time 5:22 AM AKDT 10:33 PM AKDT
Civil Twilight 4:14 AM AKDT 11:42 PM AKDT
Nautical Twilight 2:29 AM AKDT 1:24 AM AKDT
Astronomical Twilight Sun does not rise Sun does not rise
Moon 5:03 AM AKDT (5/8) 9:26 PM AKDT (5/8)
Length of Visible Light 19h 28m
Length of Day
17h 10m
Waning Crescent, 1% of the Moon is Illuminated
May 8
Waning Crescent
May 9
New
May 17
First Quarter
May 24
Full
May 31
Last Quarter

Hourly Weather History & Observations

Time (AKDT) Temp. Windchill Dew Point Humidity Pressure Visibility Wind Dir Wind Speed Gust Speed Precip Events Conditions
12:53 AM 33.1 °F - 23.0 °F 66% 30.28 in 10.0 mi Calm Calm - N/A   Clear
1:53 AM 32.0 °F - 21.0 °F 64% 30.28 in 10.0 mi Calm Calm - N/A   Clear
2:53 AM 30.9 °F - 21.0 °F 67% 30.28 in 10.0 mi Calm Calm - N/A   Clear
3:53 AM 30.9 °F - 21.0 °F 67% 30.28 in 10.0 mi Calm Calm - N/A   Clear
4:53 AM 27.0 °F - 21.0 °F 78% 30.28 in 10.0 mi Calm Calm - N/A   Clear
5:53 AM 28.0 °F 24.2 °F 21.0 °F 75% 30.29 in 10.0 mi North 3.5 mph - N/A   Clear
6:53 AM 30.0 °F - 21.0 °F 69% 30.29 in 10.0 mi Calm Calm - N/A   Clear
7:53 AM 35.1 °F - 21.9 °F 59% 30.29 in 10.0 mi Calm Calm - N/A   Clear
8:53 AM 39.0 °F 35.7 °F 21.0 °F 49% 30.29 in 10.0 mi NNW 4.6 mph - N/A   Clear
9:53 AM 42.1 °F 37.7 °F 21.9 °F 45% 30.29 in 10.0 mi North 6.9 mph - N/A   Clear
10:53 AM 44.1 °F 40.8 °F 21.9 °F 42% 30.29 in 10.0 mi NNW 5.8 mph - N/A   Clear
11:53 AM 46.0 °F 41.9 °F 21.9 °F 39% 30.29 in 10.0 mi NNW 8.1 mph - N/A   Clear
12:53 PM 46.9 °F - 21.9 °F 37% 30.28 in 10.0 mi NW 5.8 mph - N/A   Clear
1:53 PM 48.9 °F - 19.0 °F 31% 30.27 in 10.0 mi NE 9.2 mph - N/A   Clear
2:53 PM 50.0 °F - 19.0 °F 29% 30.27 in 10.0 mi NW 8.1 mph - N/A   Clear
3:53 PM 50.0 °F - 21.0 °F 32% 30.26 in 10.0 mi NW 9.2 mph - N/A   Clear
4:53 PM 52.0 °F - 19.0 °F 27% 30.26 in 10.0 mi Variable 6.9 mph - N/A   Clear
5:53 PM 53.1 °F - 18.0 °F 25% 30.25 in 10.0 mi NNE 6.9 mph - N/A   Clear
6:53 PM 52.0 °F - 17.1 °F 25% 30.25 in 10.0 mi North 11.5 mph - N/A   Clear
7:53 PM 52.0 °F - 18.0 °F 26% 30.24 in 10.0 mi North 5.8 mph - N/A   Clear
8:53 PM 50.0 °F - 19.9 °F 31% 30.25 in 10.0 mi NNE 5.8 mph - N/A   Clear
9:53 PM 46.9 °F - 21.0 °F 36% 30.25 in 10.0 mi NNW 3.5 mph - N/A   Clear
10:53 PM 43.0 °F 40.3 °F 19.9 °F 40% 30.27 in 10.0 mi North 4.6 mph - N/A   Clear
11:53 PM 39.0 °F - 21.0 °F 49% 30.28 in 10.0 mi Calm Calm - N/A   Clear